Regional Weather Roundup
Issued by NWS Green Bay, WI

Home | Current Version | Previous Version | Text Only | Print | Product List | Glossary On
Versions: 1 2 3 4 5 6 7 8 9 10 11 12 13 14 15 16 17 18 19 20 21 22 23 24 25 26 27 28 29 30 31 32 33 34 35 36 37 38 39 40 41 42 43 44 45 46 47 48 49 50
014
ASUS43 KGRB 031711
RWRGRB

NORTH-CENTRAL AND NORTHEAST WISCONSIN REGIONAL WEATHER ROUNDUP
NATIONAL WEATHER SERVICE GREEN BAY WI
1100 AM CST SAT DEC 03 2016

WIZ005-009-010>012-018-019-031800-
NORTH CENTRAL WISCONSIN

CITY           SKY/WX    TMP DP  RH WIND       PRES   REMARKS
IRONWOOD       CLOUDY    30  27  88 SW6       30.25S
MANITOWISH WTR CLOUDY    27  26  94 SW3       30.23S
ARBOR VITAE    CLOUDY    29  24  81 SW6       30.23F
EAGLE RIVER    CLOUDY    27  21  77 SW6       30.22F
LAND O LAKES   CLOUDY    29  25  85 SW5       30.24S
RHINELANDER    CLOUDY    28  23  81 E5        30.24F
PHILLIPS       CLOUDY    28  25  91 W5        30.23F
ANTIGO         CLOUDY    28  22  80 NW8       30.25F
TOMAHAWK       CLOUDY    28  22  76 CALM      30.25F
MERRILL        CLOUDY    28  23  82 CALM      30.26F
$$

WIZ013-073-031800-
NORTHEAST WISCONSIN

CITY           SKY/WX    TMP DP  RH WIND       PRES   REMARKS
IRON MOUNTAIN  CLOUDY    33  25  72 NW5       30.23F
MARINETTE      CLOUDY    34  27  75 W6        30.28F
OCONTO         CLOUDY    33  26  75 W8        30.28F
$$

WIZ017-030-035>037-045-031800-
CENTRAL WISCONSIN

CITY           SKY/WX    TMP DP  RH WIND       PRES   REMARKS
MEDFORD        CLOUDY    28  20  73 CALM      30.24F
WAUSAU         CLOUDY    29  21  72 N8        30.25F
MOSINEE        CLOUDY    28  25  86 W5        30.26F
MARSHFIELD     CLOUDY    28  23  81 W7        30.25F
WISC RAPIDS    CLOUDY    30  23  75 W7        30.28F
STEVENS POINT  CLOUDY    29  22  74 CALM      30.27F
WAUPACA        CLOUDY    33  24  69 CALM      30.28F
SHAWANO        CLOUDY    33  24  68 W7        30.28F
CLINTONVILLE   CLOUDY    32  23  69 W5        30.29S
WAUTOMA        CLOUDY    32  22  66 W6        30.29F
$$

WIZ038-039-048-051-031800-
FOX VALLEY

CITY           SKY/WX    TMP DP  RH WIND       PRES   REMARKS
NWS GREEN BAY  CLOUDY    33  26  75 W6        30.29F
APPLETON       CLOUDY    30  21  69 VRB6      30.27F
OSHKOSH        CLOUDY    32  22  66 NW5       30.27F
FOND DU LAC    CLOUDY    32  21  64 W6        30.29F
$$

WIZ022-050-052-031800-
EAST CENTRAL WISCONSIN

CITY           SKY/WX    TMP DP  RH WIND       PRES   REMARKS
EPHRAIM        CLOUDY    34  30  86 W7        30.25F
WASHINGTON ISL CLOUDY    36  29  76 NW6       30.25F
STURGEON BAY   CLOUDY    33  27  78 W7        30.27F
MANITOWOC      CLOUDY    32  24  72 MISG      30.29F
SHEBOYGAN      CLOUDY    31  23  72 W7        30.29F
$$

LMZ563-521-522-541>543-031800-
LAKESHORE

STATION/POSITION TIME  TEMP    WIND        PRES    VSBY  WAVE
                       AIR SEA DIR/SP/G                  HT/PER
                 (UTC) (F)     (DEG/KT/KT) (MB)    (MI)  (FT/S)
SHEBOYGAN LKSHOR 1700   32     300/  6/  7 1026.3F
KEWAUNEE LKSHORE 1642   32     280/ 10/ 14 1024.9F
ALGOMA MARINA    1606          270/  7/ 10   N/A
NORTHPORT PIER   1640   36     270/  4/ 11 1024.7F
SISTER BAY LKSHO 1553   36     300/ 10/ 12   N/A
CHAMBERS ISLAND  1640   35     240/  5/  7 1024.4F
MENOMINEE LKSHOR 1642   34     220/  7/ 10 1024.4F
$$




USA.gov is the U.S. government's official web portal to all federal, state and local government web resources and services.